Regional Weather Roundup
Issued by NWS

Home | Current Version | Previous Version | Text Only | Print | Product List | Glossary Off
Versions: 1 2 3 4 5 6 7 8 9 10 11 12 13 14 15 16 17 18 19 20 21 22 23 24 25 26 27 28 29 30 31 32 33 34 35 36 37 38 39 40 41 42 43 44 45 46 47 48 49 50

000
ASUS44 KMEG 211510
RWRTN
TENNESSEE HOURLY STATE WEATHER ROUNDUP
NATIONAL WEATHER SERVICE MEMPHIS TN
1000 AM CDT THU AUG 21 2014

TNZ002-004-019-021-049-052-054-088>092-211600-
WEST TENNESSEE

CITY           SKY/WX    TMP DP  RH WIND       PRES   REMARKS
MEMPHIS INTL   MOSUNNY   86  74  67 SW10      30.12R HX  94
NWS MEMPHIS      N/A     85 N/A N/A MISG        N/A
JACKSON        SUNNY     85  73  67 SW10      30.11R HX  91
DYERSBURG      SUNNY     84  68  58 SW12      30.10R
UNION CITY     SUNNY     84  75  74 SW9       30.09R HX  92
PARIS          SUNNY     82  72  69 SW13      30.11S
HUNTINGDON     SUNNY     84  73  69 SW8       30.11R HX  90
LEXINGTON      SUNNY     88  73  62 SW8       30.11R HX  96
SAVANNAH       SUNNY     84  79  84 W7        30.14R HX  96
$$

TNZ008-025-027-028-033-062-065-066-211600-
NORTH MIDDLE TENNESSEE

CITY           SKY/WX    TMP DP  RH WIND       PRES   REMARKS
NASHVILLE      MOSUNNY   86  74  67 W6        30.14R HX  94
PORTLAND       MOSUNNY   81  72  74 SW7       30.13R
CLARKSVILLE    SUNNY     84  73  69 SW7       30.10S HX  90
SMYRNA         SUNNY     84  75  74 CALM      30.14S HX  91
MURFREESBORO   SUNNY     83  72  69 VRB3      30.13
COOKEVILLE     SUNNY     81  73  78 SW6       30.16S
GALLATIN       SUNNY     81  77  88 S3        30.14S
CROSSVILLE     SUNNY     80  71  74 W8        30.22R
$$

TNZ061-075-076-078-094-096-097-211600-
SOUTH MIDDLE TENNESSEE

CITY           SKY/WX    TMP DP  RH WIND       PRES   REMARKS
LEWISBURG      SUNNY     86  72  62 SW6       30.14R HX  92
FAYETTEVILLE   SUNNY     82  72  69 W8        30.16S
TULLAHOMA      SUNNY     84  72  65 W8        30.18R
WINCHESTER     SUNNY     82  72  69 CALM      30.17S
MCMINNVILLE    SUNNY     84  77  79 SW7       30.17R HX  94
COLUMBIA       SUNNY     88  73  62 W10       30.13R HX  96
SHELBYVILLE    SUNNY     88  75  66 SW7       30.16R HX  97
$$

TNZ017-018-042-046-047-211600-
NORTHEAST TENNESSEE

CITY           SKY/WX    TMP DP  RH WIND       PRES   REMARKS
TRI CITIES     PTSUNNY   72  64  76 S3        30.21S
ELIZABETHTON   PTSUNNY   72  64  78 CALM      30.21S
$$

TNZ012-013-036-069-073-074-211600-
CENTRAL EAST TENNESSEE

CITY           SKY/WX    TMP DP  RH WIND       PRES   REMARKS
KNOXVILLE      MOSUNNY   76  69  79 N5        30.18
OAK RIDGE      MOSUNNY   73  68  84 CALM      30.20R
GATLINBURG     SUNNY     73  66  78 VRB3      30.18R
MORRISTOWN       N/A     73  70  88 CALM      30.21R
$$

TNZ083-085-099-211600-
SOUTHEAST TENNESSEE

CITY           SKY/WX    TMP DP  RH WIND       PRES   REMARKS
CHATTANOOGA    MOSUNNY   82  68  62 CALM      30.17S
$$

SKY/WX REPORTED AS FAIR MEANS FEW OR NO CLOUDS BELOW
12 THOUSAND FEET.



USA.gov is the U.S. government's official web portal to all federal, state and local government web resources and services.